Webcam

Webcam Flugplatz Krefeld EDLK

Kurzinfo

ICAO-Code: EDLK
Höhe ü. NN: 141 ft / 43 m
Platzfrequenz: 120.675 MHz - Krefeld Info
Landebahn: 06 - 24
Abmessungen: 640 x 30m
Belag: Gras

Tankstelle: Nein
Betriebszeit: PPR

Landegebühr:                   5,00 €
Abstellgebühr je Tag:        5,00 €
Gewerbl. Landungen:     25,00 €

Flugzeugführer oder Flugzeughalter, die Mitglied
in einem der am Egelsberg ansässigen Verein sind,
werden von den o.g. Gebühren befreit.
Alle Preise sind Bruttopreise.

METAR / TAF Düsseldorf

[source: ADDS]
METAR
EDDL 171120Z 20005KT 160V240 9999 BKN016 18/14 Q1021 NOSIG =
TAF
TAF EDDL 170500Z 1706/1812 18005KT CAVOK BECMG 1712/1714 VRB03KT BECMG 1806/1808 16007KT =

Anflug

Folgende Informationen sind ohne Gewähr und ersetzen auf keinen Fall die Angaben in der AIP!